User: anonymous   Login
Location: Unspecified
(0.0000°N, 0.0000°E)
Time: 23:14:28
(UTC+00:00)
Language:

EO-88 - Orbit

View from above orbital plane
View from above orbital plane
View from above satellite
View from above satellite

Ground track
Ground track

The orbit data is extracted from the following two-line orbital elements,

1 42017U 17008BX  19228.72950593 +.00000802 +00000-0 +34380-4 0  9994
2 42017 097.3995 295.2066 0005236 336.2432 023.8564 15.25635086138929
Epoch (UTC): 16 August 2019 17:30:29
Eccentricity: 0.0005236
inclination: 97.3995°
perigee height: 485 km
apogee height: 492 km
right ascension of ascending node: 295.2066°
argument of perigee: 336.2432°
revolutions per day: 15.25635086
mean anomaly at epoch: 23.8564°
orbit number at epoch: 13892

The dashed part of the orbit path shows where the satellite is in the earth's shadow,  

DLR